Location: *
(50.0228°S, 177.2688°W)
Time: 01:28:21
(UTC+00:00)

Cosmos 1607 - Pass Details

Date: 07 April 2020
Orbit: 917 x 986 km, 65.0° (Epoch: 03 June)

Event Time Altitude Azimuth Distance (km) Brightness Sun altitude
Rises 06:17:17 0° 221° (SW) 3,658 7.7 -9.6°
Reaches altitude 10° 06:19:55 10° 217° (SW) 2,698 6.9 -10.0°
Maximum altitude 06:26:11 64° 135° (SE) 1,043 4.0 -11.0°
Drops below altitude 10° 06:32:17 10° 54° (NE) 2,635 5.8 -12.0°
Enters shadow 06:32:21 10° 53° (NE) 2,662 5.8 -12.0°
